RH
23 21 19 19 21 24 29 32 34 34 33 32 32 31 31 32 32 32 32 31 28 26 25 29 32 34 34 33 32 30 27 29 31 33 34 34 33 32 31 30 29 29 28 28 27 27 27 27 28 28 28 28 28 27 26 25 25 25 25 24 22 21 21 23 21 19 18 19 19 20 21 20 19 19 18 17 17 16 16 16 16 17 20 21 21 21 21 20 20 20 20 20 20 21 23 24 24 24 25 25 25 26 26
24 21 19 19 21 24 26 31 33 34 33 32 31 31 30 30 30 31 33 33 31 28 25 26 29 33 34 33 33 31 29 29 31 33 33 33 33 32 31 30 29 28 28 27 27 27 27 27 28 28 28 28 28 27 27 26 26 26 25 25 23 22 22 22 21 19 19 20 20 21 21 20 20 19 18 18 17 17 16 16 17 19 20 20 20 20 20 20 20 20 20 21 21 23 25 25 25 26 26 26 27 27 27
24 22 20 20 22 25 26 30 33 34 33 33 32 30 29 28 28 29 33 33 31 29 27 25 27 30 33 34 33 32 29 29 31 32 33 34 33 32 31 30 29 28 27 27 27 27 27 27 28 28 28 29 29 28 28 27 27 27 25 26 24 23 23 22 21 20 20 20 21 21 21 21 21 20 19 19 18 17 17 17 19 20 21 20 20 20 20 20 20 21 21 22 23 25 26 26 27 27 27 27 27 28 28
24 22 20 21 23 26 28 30 32 33 33 32 32 31 29 28 28 29 32 32 30 29 28 26 26 27 30 32 33 32 29 29 30 32 33 34 33 32 31 29 28 27 26 26 27 27 27 28 28 29 29 29 29 29 29 28 27 27 26 27 26 24 23 23 23 22 21 20 21 22 22 22 22 22 21 20 20 19 18 19 20 21 21 20 20 20 20 21 21 22 22 23 25 26 27 27 28 28 28 28 28 28 28
22 22 20 21 23 26 29 31 32 33 33 33 32 31 29 28 28 29 31 30 29 28 28 26 25 24 26 29 31 31 28 29 30 32 33 34 33 32 30 29 27 27 26 26 27 28 28 29 30 30 30 30 30 29 29 28 28 27 27 28 27 25 23 24 24 24 23 21 22 23 23 23 23 23 23 22 21 20 20 20 21 21 20 20 20 20 21 21 22 23 24 25 26 27 28 28 29 29 29 29 29 29 29
21 21 20 21 23 26 28 31 32 33 33 32 31 30 28 28 29 29 29 28 28 29 29 27 24 22 21 25 29 31 28 28 30 32 33 33 33 32 30 28 27 26 26 27 27 28 29 30 30 31 30 30 30 29 29 28 28 27 28 28 27 27 25 24 24 25 25 23 23 23 24 24 24 24 24 23 23 22 21 22 22 22 21 21 21 21 22 23 23 24 25 26 26 27 28 28 29 29 29 29 29 29 30
19 20 20 21 24 27 29 30 31 32 32 31 30 29 28 29 29 28 28 28 29 30 30 27 24 21 19 22 26 30 29 28 29 31 34 33 33 31 30 28 27 26 26 27 28 29 29 30 31 31 30 30 29 29 28 28 28 27 27 27 27 27 26 25 25 25 25 24 23 24 25 25 25 25 25 24 24 24 23 23 23 23 22 22 22 22 23 24 24 25 26 27 28 28 28 28 29 29 29 29 29 29 29
18 20 20 20 23 26 29 30 31 31 31 29 28 28 28 29 29 28 28 29 31 32 31 27 23 20 18 20 25 29 29 27 28 30 33 33 32 31 29 28 27 26 26 27 28 29 30 31 31 31 30 29 29 28 28 28 28 28 27 27 27 27 27 26 25 26 26 24 24 24 25 26 26 26 26 25 25 25 25 24 24 24 23 23 23 23 24 25 26 26 27 28 28 29 29 29 29 29 29 29 29 29 29
18 20 21 20 21 24 29 30 30 30 27 27 28 29 30 29 29 29 31 32 33 34 32 27 22 20 19 21 24 27 29 27 27 29 32 33 32 31 29 28 27 26 26 26 27 29 30 31 31 31 31 29 28 28 29 28 28 28 28 28 28 28 27 26 26 26 26 25 25 25 26 26 27 27 27 27 26 26 26 26 25 25 24 24 24 24 25 26 27 28 28 29 29 30 30 30 30 29 29 29 29 29 29
19 20 21 20 21 23 26 29 29 28 26 28 29 31 32 31 31 32 33 34 34 34 32 26 22 19 20 21 24 26 28 26 26 28 31 32 32 30 29 28 27 26 26 26 27 28 30 31 32 32 31 29 28 28 29 29 29 29 29 30 29 29 28 27 27 27 27 25 25 25 26 26 27 27 28 28 27 27 27 26 26 26 26 25 25 26 26 27 28 28 29 30 30 30 31 31 30 30 30 30 30 29 29
19 21 22 21 22 22 23 26 27 28 26 30 32 33 33 33 33 33 34 34 34 34 32 26 22 19 20 22 24 25 26 25 26 27 30 32 31 30 28 27 26 26 25 26 26 28 29 31 31 32 31 29 29 28 28 29 29 30 30 30 29 28 28 27 27 26 26 26 25 25 26 27 27 28 29 29 29 28 27 27 27 27 27 27 27 27 27 28 28 29 30 30 31 31 31 31 31 31 31 30 30 30 29
20 21 22 23 23 23 23 25 27 28 27 31 33 34 34 34 34 34 34 34 34 34 32 26 22 19 20 22 23 24 24 24 25 26 30 31 30 29 28 27 26 25 25 26 26 27 28 29 30 31 30 29 28 28 27 28 29 30 30 30 29 28 28 27 26 26 26 26 26 26 27 27 27 28 29 29 29 29 28 28 28 28 28 28 29 29 29 29 29 30 30 31 31 32 32 32 32 32 31 31 30 30 29
21 22 23 24 25 24 23 26 28 30 29 32 34 34 34 34 34 34 34 34 34 34 32 27 23 20 20 21 22 22 23 23 24 26 29 30 29 28 27 25 25 25 25 25 26 27 28 29 29 29 29 28 27 26 26 27 28 30 30 29 28 28 28 27 26 26 26 26 26 27 27 27 28 29 30 30 30 29 28 28 28 29 29 29 30 30 30 30 30 30 31 31 32 32 32 33 33 33 32 32 31 31 30
22 23 24 25 26 25 26 28 30 31 31 33 34 34 35 35 34 34 34 34 35 34 33 29 24 20 19 20 21 21 22 22 23 25 27 28 28 27 26 25 24 24 25 25 26 26 27 28 29 29 28 27 26 25 25 26 28 29 29 28 28 29 28 27 27 26 26 27 27 27 28 28 28 29 30 31 30 30 29 29 29 29 30 30 30 31 31 30 30 31 31 31 32 32 33 33 33 33 33 32 32 31 31
23 24 24 26 27 28 29 30 31 32 32 33 34 35 35 35 35 34 34 35 35 34 33 30 26 22 19 20 21 21 21 21 22 24 26 26 26 26 25 24 23 24 24 25 25 26 27 28 28 28 28 27 25 24 24 26 27 28 28 28 29 29 29 28 27 27 27 27 28 28 29 29 30 30 31 31 31 30 30 30 30 30 30 31 31 31 31 31 31 31 31 32 32 32 33 33 33 33 33 33 32 32 32
23 24 25 25 27 29 30 31 32 32 32 33 34 35 35 35 35 35 35 35 36 35 33 31 27 23 20 20 20 20 20 21 22 23 24 25 25 25 24 23 23 23 23 24 25 25 26 27 28 28 27 26 25 24 24 25 26 26 27 29 30 31 30 30 29 28 27 28 28 29 29 30 30 31 32 32 31 30 30 31 31 31 31 31 31 31 31 31 31 31 31 32 32 32 32 32 32 33 33 33 33 32 32
22 23 24 25 27 30 31 32 32 32 33 33 34 35 35 35 35 35 35 36 36 35 33 31 28 24 21 20 20 20 20 20 21 22 23 24 24 24 23 22 22 22 22 23 23 24 25 26 27 27 27 26 25 24 24 24 24 25 27 30 32 32 32 32 31 30 28 28 29 29 30 30 31 32 33 32 32 31 32 32 33 33 33 33 32 32 32 32 32 32 32 32 32 32 32 32 32 32 32 32 33 33 32
22 22 24 25 27 29 32 33 33 33 32 33 34 34 35 35 35 35 35 36 36 35 33 30 28 25 22 21 20 20 20 20 21 22 23 23 23 23 22 21 21 21 21 21 22 23 24 25 26 26 26 26 25 24 24 23 23 25 28 31 33 34 34 33 32 31 29 29 29 29 30 31 32 33 33 33 32 32 33 34 35 35 35 34 34 34 33 33 33 32 32 32 32 31 31 31 31 32 32 32 32 33 33
22 22 24 25 26 29 32 33 34 34 32 32 33 34 35 35 35 35 35 36 36 34 31 30 28 26 23 22 21 20 20 20 20 21 22 22 22 21 21 20 20 19 19 20 20 21 22 24 25 26 26 26 25 24 23 22 23 25 29 32 34 34 34 35 34 32 31 29 29 29 30 31 32 33 34 33 33 34 35 36 37 37 37 37 36 36 35 35 34 34 33 32 32 31 31 31 31 31 31 32 32 32 32
20 21 22 24 26 27 31 33 35 35 34 34 33 33 33 34 35 35 35 35 35 34 32 29 28 26 24 23 22 20 19 19 20 21 22 22 21 21 20 19 19 18 18 18 19 20 21 23 24 25 26 26 25 24 23 22 24 26 30 32 34 35 35 36 35 34 32 31 30 30 30 32 33 34 35 34 34 35 36 38 38 39 39 39 38 38 37 37 36 35 34 34 33 32 31 31 31 31 31 31 32 32 32
17 19 20 23 25 26 29 33 35 36 36 36 34 33 32 33 34 34 34 35 36 36 34 30 28 26 25 24 22 21 19 19 20 21 21 21 20 20 19 19 18 18 17 18 18 19 21 22 24 25 25 25 24 23 23 23 25 27 29 31 33 35 36 36 36 35 33 32 31 30 31 32 33 35 35 35 35 36 37 38 39 40 40 40 40 40 39 38 38 37 36 35 34 33 32 31 31 31 31 31 31 32 32
15 16 18 22 25 26 27 31 34 36 37 37 35 34 32 31 32 32 33 33 34 36 37 33 29 26 25 24 23 22 20 21 21 21 21 20 20 19 19 18 18 18 17 17 18 19 20 21 23 24 24 24 24 23 24 24 25 27 29 30 32 34 36 36 36 35 34 32 32 31 31 33 34 35 35 35 35 36 37 39 40 40 41 41 41 41 40 40 39 39 38 37 35 34 33 32 32 31 31 31 31 31 31
15 16 17 21 24 26 27 30 33 36 37 37 36 35 33 32 31 30 30 29 31 35 37 35 31 27 24 24 23 22 22 22 23 22 21 20 19 19 19 18 18 17 17 17 18 18 19 21 22 23 23 23 24 24 24 24 25 26 28 30 32 34 36 36 35 35 34 33 32 32 32 33 34 35 36 35 35 36 37 38 39 40 41 41 41 41 41 41 40 40 39 38 37 36 35 33 32 32 31 31 31 31 31
15 16 18 22 25 27 27 29 32 35 37 37 37 36 35 33 31 29 28 27 28 30 34 35 33 29 25 24 23 23 23 24 24 23 22 21 20 20 19 19 18 18 18 18 18 19 20 20 21 22 23 23 24 24 25 24 25 25 27 29 32 34 35 35 35 34 34 33 33 33 33 34 35 36 36 36 36 36 37 38 39 40 41 41 41 42 42 42 41 41 40 39 38 37 35 34 33 32 31 31 30 30 30
15 16 19 23 25 27 28 29 31 33 35 36 36 36 35 33 32 30 27 26 26 27 29 31 31 30 28 25 23 22 23 24 24 24 23 21 21 20 20 19 19 18 18 18 19 20 20 21 21 22 23 23 24 24 25 25 24 25 26 28 30 33 34 35 35 34 33 33 33 33 34 34 35 36 36 36 36 36 37 38 39 40 41 41 42 42 42 42 42 42 41 40 39 38 36 35 34 33 32 31 30 30 30
15 16 19 22 25 27 29 29 29 30 32 33 34 34 34 33 32 30 28 26 25 26 27 28 29 29 29 25 23 22 23 24 24 23 22 21 21 20 20 20 19 19 19 19 20 20 21 21 22 22 23 23 24 24 25 25 25 25 26 28 29 31 34 34 34 34 34 34 34 34 34 35 35 36 37 37 37 37 37 38 39 40 41 41 42 42 42 43 42 42 42 41 40 39 38 36 35 33 32 31 30 30 30
14 15 18 22 25 27 28 29 29 28 28 30 31 32 33 33 33 31 29 27 26 26 26 26 27 27 28 26 23 22 23 24 23 23 22 21 20 20 20 19 19 19 19 20 20 21 21 22 22 22 23 23 23 24 24 24 24 25 26 27 28 30 31 32 32 33 34 34 34 34 35 35 36 36 37 37 37 38 38 39 39 40 41 42 42 43 43 43 43 43 43 42 41 40 39 37 36 34 33 32 31 30 30
13 14 17 22 25 27 29 29 29 28 28 29 30 32 33 33 33 32 30 28 27 27 26 26 26 26 26 25 24 23 24 23 23 22 21 21 20 20 20 20 20 19 20 20 21 21 22 22 22 23 23 23 23 23 23 23 23 24 24 25 27 28 30 31 32 33 34 35 35 35 35 35 36 36 37 38 38 38 39 39 40 41 41 42 42 43 43 43 44 44 43 43 42 41 40 39 37 35 33 32 31 30 30
12 13 16 21 26 29 31 32 31 30 30 30 32 33 34 32 31 30 30 29 28 27 26 26 26 25 25 25 24 24 24 24 23 22 21 21 20 20 20 20 20 20 20 20 20 21 22 22 22 22 23 23 23 23 23 23 22 23 23 25 26 28 29 31 33 34 35 35 35 35 35 36 36 36 37 38 38 38 39 39 40 41 41 42 43 43 43 44 44 44 44 43 43 43 42 40 38 36 34 33 32 31 30
11 12 16 21 26 31 34 35 34 33 33 33 33 34 33 32 30 28 28 27 27 27 26 26 25 25 23 24 24 24 24 23 23 22 21 21 21 21 21 21 21 21 20 20 20 21 21 22 22 22 23 23 23 23 23 22 22 22 23 24 26 28 30 31 33 34 35 36 36 36 36 36 36 36 37 37 38 38 39 39 40 41 41 42 43 43 44 44 44 44 44 44 44 43 43 42 40 38 36 34 32 31 31
10 11 15 21 27 32 35 36 36 36 35 35 34 34 33 31 30 28 26 26 26 25 25 25 25 23 22 23 24 24 23 23 22 21 21 21 21 21 21 22 22 22 21 21 20 21 21 21 22 23 23 23 23 23 22 22 22 22 23 25 26 28 30 31 33 34 35 36 36 37 37 36 36 36 37 37 38 38 39 39 40 41 41 42 43 43 44 44 44 44 44 44 44 44 44 43 41 39 37 35 33 32 31
9 11 15 22 28 34 36 36 36 36 35 35 34 33 32 31 30 28 26 25 24 24 24 24 23 22 22 23 23 23 23 23 22 21 21 21 22 22 22 22 23 23 23 22 21 21 21 22 22 22 23 23 23 22 22 22 22 22 23 25 26 28 30 32 33 34 35 36 37 37 37 37 37 37 37 37 38 38 39 39 40 41 42 42 43 43 44 44 44 45 45 44 44 44 44 43 42 41 39 37 35 33 32
10 11 15 22 29 34 35 35 35 35 34 33 32 32 32 31 30 28 27 24 23 22 23 23 22 21 22 22 23 23 23 22 22 21 21 22 22 23 23 23 24 24 24 23 22 21 21 22 22 22 23 23 23 22 22 22 22 22 23 24 26 28 30 32 34 35 36 37 37 37 37 37 37 37 38 38 39 39 39 40 40 41 42 42 43 43 44 44 45 45 45 44 44 44 44 44 43 42 40 38 36 34 33
13 13 15 21 27 31 33 32 31 31 31 30 30 31 31 30 29 28 26 23 22 21 22 22 21 21 22 22 22 23 23 22 22 21 21 22 23 24 24 24 24 24 24 23 22 21 21 22 22 23 23 23 23 23 23 23 23 23 24 25 26 28 30 32 34 35 36 37 37 38 38 38 38 38 38 39 40 40 41 41 41 41 42 43 43 43 44 44 44 45 44 44 44 44 44 44 44 43 42 40 38 36 34
16 16 16 20 23 26 28 27 28 28 29 30 30 30 29 28 27 26 24 22 20 20 20 20 21 21 22 22 22 22 23 22 21 21 20 21 23 24 25 25 25 25 24 23 22 22 21 22 23 23 24 24 24 24 24 24 24 24 25 26 27 29 30 32 33 35 36 36 37 38 38 38 38 39 39 40 41 42 42 42 42 42 43 43 43 43 44 44 44 44 44 44 44 45 45 45 45 45 44 42 40 38 36
18 19 19 20 22 23 24 25 26 27 29 30 30 29 27 26 25 23 22 20 20 19 19 19 20 21 22 21 21 21 22 21 21 20 20 20 22 24 25 26 26 25 25 23 23 22 22 22 23 24 24 25 25 25 25 25 25 25 26 27 28 29 30 31 32 34 34 36 37 37 38 39 39 39 40 40 41 42 43 43 44 44 43 43 43 43 43 44 44 44 45 45 45 45 46 46 46 46 46 44 42 39 37
18 19 20 21 22 22 23 23 25 27 29 29 28 26 25 23 22 21 20 19 19 18 18 18 19 20 21 20 20 20 20 20 20 19 19 20 22 24 25 26 26 26 25 24 23 23 22 23 23 24 24 24 25 25 25 25 26 27 27 28 29 29 31 31 32 33 34 35 36 37 38 39 39 40 41 41 41 42 43 43 44 45 45 45 45 44 45 45 45 45 46 46 46 47 47 48 48 48 47 45 43 40 37
18 19 20 22 22 23 23 23 24 26 27 26 25 24 22 21 20 19 19 19 18 18 17 18 18 19 20 19 19 18 19 19 19 19 20 21 22 24 25 26 27 26 25 24 24 23 23 23 23 24 24 24 25 25 25 26 27 28 28 29 29 30 31 31 32 32 33 34 36 37 38 39 40 40 41 41 41 42 42 43 43 44 45 45 46 46 46 47 47 47 47 48 48 48 48 49 49 48 48 46 43 40 37
18 19 20 22 23 24 24 23 24 24 25 24 23 22 21 19 18 18 19 19 18 18 17 17 18 19 19 19 18 18 18 18 18 19 20 21 23 24 25 26 26 26 25 24 24 23 23 23 24 24 24 25 25 26 27 27 28 29 29 30 30 31 31 32 32 33 34 34 35 37 38 39 39 40 40 41 41 41 42 42 43 43 44 45 46 46 47 47 48 48 49 49 49 49 49 49 49 48 47 45 43 40 37
19 19 20 22 23 24 24 24 24 24 25 24 23 22 20 18 18 18 19 19 18 17 17 17 18 19 19 19 18 17 17 17 18 18 20 21 23 24 24 25 25 24 24 24 23 24 24 25 25 25 25 26 26 27 28 29 29 30 30 31 31 31 32 32 33 34 35 35 36 37 38 38 39 40 40 41 41 41 41 42 43 43 43 44 44 45 46 47 47 48 48 48 49 49 48 48 48 47 46 45 43 41 39
19 20 21 22 24 25 25 24 24 24 25 25 24 22 20 18 17 17 18 18 18 17 16 17 18 19 19 18 17 16 16 16 17 18 19 21 22 23 24 24 24 24 24 24 24 25 26 26 26 27 27 27 28 29 29 30 31 31 31 32 32 32 33 34 35 36 37 37 38 38 39 39 40 40 41 41 41 42 42 43 43 44 44 44 44 44 44 45 45 46 46 47 47 47 47 47 47 46 46 45 43 42 39
19 20 21 23 24 25 25 24 24 24 25 25 25 23 21 19 17 17 17 18 18 17 17 17 18 19 18 17 16 15 14 15 16 18 19 21 22 23 23 24 24 24 25 25 26 27 27 28 28 28 28 29 30 31 31 32 32 33 33 33 33 33 34 35 37 38 39 39 40 40 41 41 42 42 42 43 43 43 43 44 44 44 44 44 44 43 43 43 44 44 45 45 46 46 46 47 47 46 46 45 44 42 40
19 20 22 24 25 26 26 25 24 24 23 24 24 23 21 19 17 17 17 17 17 17 17 17 18 18 18 17 15 14 13 14 16 18 20 22 23 24 24 25 25 26 27 27 28 28 29 29 29 29 30 31 32 33 33 33 34 34 34 35 35 35 36 37 38 39 41 41 42 43 43 43 44 44 44 44 43 43 43 43 44 43 43 43 43 42 42 43 43 44 45 46 46 47 47 47 47 47 46 45 43 41 39
20 21 23 25 26 26 26 26 25 23 23 23 22 22 20 18 17 17 16 16 17 17 17 18 18 18 18 17 15 14 13 15 17 19 22 23 24 25 26 27 27 28 29 29 30 30 30 30 30 30 31 32 33 33 34 34 35 35 36 36 37 37 38 38 39 40 42 42 43 44 44 44 44 44 44 43 43 42 42 42 42 43 43 42 42 42 42 43 44 45 46 47 48 49 49 49 48 47 45 43 42 40 38
21 22 24 25 26 27 27 27 25 24 22 21 20 19 18 17 17 16 16 16 17 18 18 18 18 18 18 17 16 15 14 16 18 21 23 24 26 27 27 28 29 30 30 31 31 31 30 30 30 30 31 32 33 33 34 34 35 35 36 37 38 38 39 39 40 41 42 42 43 43 44 44 43 43 43 42 42 41 41 41 42 43 43 43 43 43 44 45 46 47 48 50 51 51 51 50 49 47 44 42 40 38 37
22 23 25 26 27 27 28 27 26 24 21 19 18 17 16 16 16 15 16 16 17 17 18 18 19 18 18 17 16 16 16 18 20 22 25 26 27 28 29 29 30 31 31 32 32 31 31 31 31 31 31 32 32 33 33 33 34 35 36 38 39 39 39 40 40 40 41 42 42 43 43 43 42 42 42 41 41 41 41 42 43 44 45 45 45 46 46 47 48 49 50 51 52 53 53 51 49 47 44 42 39 38 36
22 23 24 25 27 27 28 28 26 23 20 18 16 15 15 14 15 15 15 16 17 17 18 19 19 19 18 17 16 16 17 19 22 24 27 28 29 30 30 31 31 32 32 33 33 32 32 32 33 33 33 33 33 33 32 32 33 34 36 38 39 40 40 40 40 40 41 41 42 42 42 42 42 42 41 41 41 41 42 43 45 46 47 47 47 48 48 49 50 51 52 52 53 53 53 52 50 47 44 41 38 36 35
22 23 23 24 26 27 28 28 26 23 20 17 15 14 13 13 14 14 15 16 17 18 18 19 19 19 18 17 16 16 17 20 23 26 29 30 31 31 32 32 32 33 34 34 34 34 34 35 35 35 34 34 34 33 33 32 33 35 37 38 40 41 41 41 42 42 42 42 42 42 42 42 42 42 41 42 42 42 43 45 46 47 48 48 49 49 50 50 51 52 52 53 53 54 54 52 50 47 43 39 36 34 32
22 22 22 23 25 27 28 28 26 24 21 17 15 13 13 13 13 14 16 16 17 17 18 19 19 18 18 16 16 16 18 21 24 28 31 33 34 34 33 34 35 35 35 35 36 36 36 37 37 36 36 36 35 34 33 33 34 35 37 39 40 41 42 43 43 43 43 43 43 43 42 42 42 42 42 42 42 43 44 46 47 48 49 50 50 50 51 52 52 53 53 53 54 54 53 52 49 45 41 37 33 31 29
21 21 21 23 25 27 28 27 26 25 22 19 16 14 13 13 13 14 15 16 17 17 18 18 19 18 17 16 16 16 18 22 26 29 33 35 36 36 36 36 37 37 38 37 37 38 38 38 38 38 37 36 36 34 34 34 34 36 37 39 40 41 42 43 44 44 44 44 44 43 43 42 42 42 42 43 43 44 45 47 48 49 50 51 51 52 52 52 53 53 53 53 53 52 51 49 46 42 38 33 30 28 26
19 20 20 22 24 26 27 27 26 25 23 21 18 16 15 14 14 14 15 16 17 17 18 18 18 18 17 16 16 16 19 23 27 31 35 36 36 37 38 38 38 38 38 38 38 39 39 39 38 38 37 36 36 35 34 35 35 36 38 39 40 41 42 43 44 44 45 45 45 44 43 43 43 43 44 44 45 46 47 48 49 50 50 51 51 52 52 52 52 51 51 50 50 49 48 46 43 39 35 31 27 25 23
18 19 20 21 23 24 25 26 25 25 24 22 21 19 17 16 15 15 15 15 16 17 17 18 18 18 18 16 16 17 20 24 28 31 35 36 36 37 38 40 41 42 41 40 39 38 38 38 38 37 37 36 36 35 35 36 36 37 38 39 40 41 41 42 43 44 45 45 45 45 44 44 44 45 45 46 47 47 48 49 49 50 50 50 50 50 50 49 49 48 47 46 45 44 43 41 39 36 33 29 25 23 22
18 19 20 21 23 24 25 25 25 25 24 23 22 20 19 18 17 16 16 16 16 16 16 17 18 18 18 17 17 18 20 24 28 31 34 36 37 39 39 41 43 44 43 43 42 40 37 36 36 36 36 36 36 36 37 37 38 38 38 39 39 40 40 42 43 45 46 46 46 46 46 46 46 46 47 47 47 48 48 48 48 48 47 47 47 46 45 45 44 43 43 42 41 40 40 38 37 35 32 28 25 23 22
18 19 20 22 23 24 25 25 24 24 23 22 21 21 20 20 19 19 18 17 16 15 16 17 18 18 18 17 17 17 19 23 27 30 33 35 38 40 42 42 42 42 41 43 43 41 38 36 36 36 36 36 36 37 37 38 38 38 38 39 39 40 41 43 45 46 47 47 48 47 47 47 47 47 47 46 46 46 46 45 45 44 44 43 42 42 41 41 40 40 40 39 39 39 38 38 37 35 33 30 27 24 23
18 19 21 22 23 24 24 24 24 23 23 22 21 21 20 20 20 20 19 18 17 16 16 17 17 18 18 18 17 17 18 21 25 29 32 34 36 38 41 42 42 42 42 42 42 41 39 37 37 37 36 36 37 38 38 38 39 39 39 40 41 42 43 45 46 47 48 48 48 47 47 46 45 45 44 44 43 43 42 41 41 40 40 40 39 39 39 39 39 39 39 39 39 39 39 39 38 37 35 32 28 26 25
19 20 21 22 22 23 23 23 23 22 22 21 21 20 20 20 20 20 20 20 19 17 16 16 17 17 17 17 17 17 18 20 23 27 31 33 34 36 37 40 41 41 40 39 38 38 38 39 39 39 37 37 38 39 39 39 40 40 41 42 43 44 45 46 46 47 46 46 45 45 44 43 42 42 41 41 40 40 39 39 38 38 38 39 39 39 39 40 40 40 41 41 41 41 40 40 40 39 37 34 30 28 26
19 20 21 21 22 22 22 22 22 22 21 20 20 20 19 19 20 20 21 21 20 19 18 17 17 17 17 17 17 18 18 20 22 24 28 30 32 34 35 36 38 39 39 38 38 38 38 39 40 41 39 37 37 38 38 38 38 39 41 42 43 44 45 45 44 44 43 42 41 41 40 40 40 40 40 40 39 39 39 38 38 39 39 40 40 41 41 42 42 42 42 42 42 41 41 41 41 40 39 36 33 30 27
19 19 19 20 20 20 21 21 21 21 20 20 20 19 19 19 19 19 20 20 20 20 19 18 18 17 17 17 17 17 18 19 20 21 24 27 30 32 33 34 34 35 36 37 38 38 38 39 40 40 39 38 37 36 37 37 38 38 39 40 40 41 41 41 40 39 38 37 37 36 37 37 38 38 39 39 40 40 40 39 39 40 41 41 42 42 43 43 43 43 43 43 42 42 41 41 40 41 41 39 35 32 29
19 18 18 18 18 18 19 20 20 20 20 20 20 19 19 18 18 18 19 19 20 20 20 19 19 18 18 18 18 18 19 18 19 19 21 23 25 27 29 30 31 33 34 34 34 35 36 38 38 39 40 39 37 35 34 35 36 36 36 36 35 35 35 35 35 34 34 34 33 33 34 35 36 37 39 39 40 40 41 40 40 41 41 42 43 43 43 44 44 44 44 43 43 43 42 41 41 41 42 41 38 35 32
19 18 16 15 16 17 18 19 20 21 21 20 20 19 18 17 17 17 18 19 20 20 20 20 20 20 20 20 19 19 19 19 18 18 19 21 22 22 24 26 27 28 29 30 30 31 33 34 36 37 39 38 37 36 35 34 34 34 34 33 33 33 32 33 33 33 33 32 32 33 33 34 35 37 38 39 40 40 40 40 40 40 41 41 42 43 43 44 44 44 44 44 44 44 43 43 42 42 43 43 42 40 37
20 17 15 14 14 15 17 19 20 20 20 20 19 18 17 17 17 17 18 19 19 20 20 20 21 21 21 21 21 20 20 19 18 18 18 20 20 20 21 23 23 24 25 26 27 29 31 33 35 37 38 38 37 37 36 34 33 33 34 34 34 34 34 34 34 35 35 35 35 35 35 36 36 37 38 39 39 39 39 39 39 39 39 40 41 42 43 44 44 45 45 45 46 46 46 45 45 45 45 47 47 46 44